Home > Weather > Spa > Past weeks

Flag for Belgium Past Weather in Spa, Belgium — Yesterday and Last 2 Weeks

Now
61 °F

Partly sunny.


Feels Like: 61 °F
Forecast: 51 / 62 °F
Wind: 6 mph from West

Location: Spa / La Sauveniere

Current Time: Jun 26, 2016 at 4:08:02 PM

Latest Report: Jun 26, 2016 at 3:00 PM


Visibility: 19 mi

Pressure: 30.06 "Hg

Humidity: 64%

Dew Point: 48 °F

Location of SpaLocation

Past Weather in Spa — Graph

°F

Spa Temperature Yesterday

Maximum temperature yesterday: 61 °F (at 2:00 AM)
Minimum temperature yesterday: 53 °F (at 4:00 PM)
Average temperature yesterday: 56 °F

High & Low Weather Summary for the Past Weeks

 TemperatureHumidityPressure
High86 °F (Jun 23, 5:00 PM)96% (Jun 24, 8:00 AM)30.30 "Hg (Jun 24, 8:00 AM)
Low47 °F (Jun 16, 6:00 AM)45% (Jun 23, 6:00 PM)29.50 "Hg (Jun 14, 3:00 PM)
Average58 °F84%29.92 "Hg
* Reported Jun 11 2:00 PM — Jun 26 2:00 PM, Spa, Weather by CustomWeather, © 2016

Note: Actual official high and low records may vary slightly from our data, if they occured in-between our weather recording intervals... More about our weather records

Advertising

Spa Weather History for the Previous 24 Hours

Scroll right to see more
 ConditionsComfort  
Time TempWeatherWind HumidityBarometerVisibility
2:00 PM
Sun, Jun 26
59 °FPartly sunny.5 mph69%30.06 "Hg25 mi
1:00 PM56 °FScattered clouds.5 mph81%30.08 "Hg16 mi
12:00 PM54 °FDrizzle. Partly sunny.3 mph85%30.09 "Hg11 mi
11:00 AM54 °FPartly sunny.3 mph79%30.09 "Hg22 mi
10:00 AM53 °FPartly sunny.5 mph80%30.09 "Hg19 mi
9:00 AM53 °FPartly sunny.5 mph84%30.08 "Hg18 mi
8:00 AM52 °FSunny.6 mph85%30.07 "Hg22 mi
7:00 AM50 °FSunny.5 mph86%30.07 "Hg19 mi
6:00 AM49 °FSunny.3 mph88%30.07 "Hg22 mi
5:00 AM49 °FClear.3 mph86%30.07 "Hg28 mi
4:00 AM50 °FClear.3 mph86%30.07 "Hg19 mi
3:00 AM51 °FClear.5 mph88%30.07 "Hg12 mi
2:00 AM51 °FClear.2 mph91%30.08 "Hg14 mi
1:00 AM52 °FPassing clouds.2 mph91%30.08 "Hg11 mi
12:00 AM52 °FPassing clouds.1 mph90%30.08 "Hg9 mi
11:00 PM
Sat, Jun 25
54 °FPassing clouds.2 mph86%30.07 "Hg19 mi
10:00 PM54 °FPassing clouds.1 mph87%30.06 "Hg19 mi
9:00 PM55 °FSunny.2 mph85%30.03 "Hg25 mi
8:00 PM58 °FSunny.2 mph72%30.02 "Hg22 mi
7:00 PM56 °FPassing clouds.1 mph77%30.02 "Hg22 mi
6:00 PM55 °FPartly sunny.3 mph91%30.04 "HgN/A
5:00 PM53 °FPartly sunny.2 mph91%30.05 "HgN/A
4:00 PM53 °FLight rain. Low clouds.5 mph92%30.04 "Hg6 mi
Weather by CustomWeather, © 2016

See weather overviewHow to use our weather pages